UAE9903 EHAM-EDDF

Flight info

Callsign UAE9903
Flight time 0h 47m
Altitude 31000
Route EDUPO Z739 MISGO DCT DIXAT DIXAT1A
Aircraft B744/H-SDE3FGHIM1M2RWXY/LB1

Departure

Time 2026-05-07 12:34
Airport Amsterdam Airport Schiphol (EHAM)

Arrival

Time 2026-05-07 13:22
Airport Frankfurt Main Airport (EDDF)
Time Latitude Longitude Altitude Speed Heading
2026-05-07 12:02 52.29693 4.76698 2 ft 0 kts 149°
2026-05-07 12:15 52.29702 4.76689 2 ft 2 kts 149°
2026-05-07 12:15 52.29715 4.76676 1 ft 2 kts 149°
2026-05-07 12:15 52.29728 4.76664 1 ft 2 kts 149°
2026-05-07 12:15 52.29740 4.76651 0 ft 2 kts 149°
2026-05-07 12:16 52.29754 4.76638 0 ft 2 kts 160°
2026-05-07 12:16 52.29768 4.76635 0 ft 2 kts 185°
2026-05-07 12:16 52.29783 4.76640 0 ft 2 kts 206°
2026-05-07 12:16 52.29796 4.76654 0 ft 2 kts 227°
2026-05-07 12:17 52.29801 4.76665 0 ft 1 kts 239°
2026-05-07 12:17 52.29803 4.76670 0 ft 0 kts 238°
2026-05-07 12:25 52.29803 4.76669 0 ft 0 kts 238°
2026-05-07 12:25 52.29800 4.76663 0 ft 2 kts 238°
2026-05-07 12:26 52.29779 4.76606 0 ft 8 kts 238°
2026-05-07 12:26 52.29742 4.76515 0 ft 10 kts 237°
2026-05-07 12:26 52.29697 4.76399 0 ft 13 kts 238°
2026-05-07 12:26 52.29645 4.76262 0 ft 13 kts 239°
2026-05-07 12:27 52.29601 4.76144 0 ft 10 kts 238°
2026-05-07 12:27 52.29570 4.76063 1 ft 6 kts 239°
2026-05-07 12:27 52.29543 4.75988 0 ft 10 kts 240°
2026-05-07 12:27 52.29497 4.75814 0 ft 20 kts 245°
2026-05-07 12:28 52.29466 4.75718 0 ft 0 kts 241°
2026-05-07 12:28 52.29465 4.75715 0 ft 1 kts 241°
2026-05-07 12:28 52.29444 4.75651 0 ft 11 kts 242°
2026-05-07 12:28 52.29460 4.75525 0 ft 12 kts 328°
2026-05-07 12:29 52.29533 4.75456 0 ft 12 kts 330°
2026-05-07 12:29 52.29612 4.75369 0 ft 15 kts 326°
2026-05-07 12:29 52.29718 4.75283 1 ft 18 kts 351°
2026-05-07 12:29 52.29832 4.75206 4 ft 16 kts 313°
2026-05-07 12:30 52.29900 4.75080 6 ft 14 kts 311°
2026-05-07 12:30 52.29972 4.74950 6 ft 17 kts 312°
2026-05-07 12:30 52.30065 4.74777 4 ft 23 kts 311°
2026-05-07 12:30 52.30181 4.74561 -1 ft 22 kts 311°
2026-05-07 12:31 52.30265 4.74407 -5 ft 9 kts 311°
2026-05-07 12:31 52.30306 4.74329 -6 ft 8 kts 311°
2026-05-07 12:31 52.30344 4.74259 -8 ft 8 kts 310°
2026-05-07 12:31 52.30373 4.74158 -9 ft 13 kts 266°
2026-05-07 12:32 52.30304 4.74008 -7 ft 17 kts 214°
2026-05-07 12:32 52.30236 4.73934 -8 ft 10 kts 218°
2026-05-07 12:32 52.30199 4.73860 -7 ft 6 kts 252°
2026-05-07 12:32 52.30210 4.73767 -5 ft 7 kts 311°
2026-05-07 12:33 52.30298 4.73741 -5 ft 10 kts
2026-05-07 12:33 52.30467 4.73760 -5 ft 50 kts
2026-05-07 12:33 52.31114 4.73823 0 ft 140 kts
2026-05-07 12:34 52.32318 4.73835 405 ft 192 kts 360°
2026-05-07 12:34 52.33477 4.73655 1276 ft 166 kts 354°
2026-05-07 12:34 52.34687 4.73577 1402 ft 184 kts 12°
2026-05-07 12:34 52.35862 4.74427 1899 ft 188 kts 38°
2026-05-07 12:35 52.36867 4.75827 2451 ft 195 kts 38°
2026-05-07 12:35 52.37888 4.77406 2863 ft 214 kts 41°
2026-05-07 12:35 52.38934 4.79197 3350 ft 225 kts 37°
2026-05-07 12:35 52.40055 4.81018 3962 ft 230 kts 36°
2026-05-07 12:36 52.41223 4.82824 4566 ft 236 kts 35°
2026-05-07 12:36 52.42283 4.84990 4965 ft 256 kts 59°
2026-05-07 12:36 52.42790 4.87867 5402 ft 268 kts 85°
2026-05-07 12:36 52.42712 4.90922 5870 ft 273 kts 95°
2026-05-07 12:37 52.42547 4.94058 6323 ft 277 kts 92°
2026-05-07 12:37 52.42362 4.97247 6721 ft 284 kts 104°
2026-05-07 12:37 52.41591 5.00208 7086 ft 287 kts 127°
2026-05-07 12:37 52.40229 5.02471 7725 ft 273 kts 148°
2026-05-07 12:38 52.38607 5.03971 8353 ft 263 kts 151°
2026-05-07 12:38 52.37041 5.05416 8890 ft 255 kts 145°
2026-05-07 12:38 52.35604 5.06918 9537 ft 244 kts 143°
2026-05-07 12:38 52.34205 5.08452 10030 ft 243 kts 143°
2026-05-07 12:39 52.32838 5.10147 10300 ft 250 kts 132°
2026-05-07 12:39 52.31686 5.12305 10540 ft 260 kts 129°
2026-05-07 12:39 52.30487 5.14605 10711 ft 274 kts 131°
2026-05-07 12:39 52.29180 5.17009 10756 ft 291 kts 131°
2026-05-07 12:40 52.27785 5.19555 10596 ft 313 kts 131°
2026-05-07 12:40 52.26286 5.22286 10542 ft 327 kts 131°
2026-05-07 12:40 52.24777 5.25032 10843 ft 327 kts 131°
2026-05-07 12:40 52.23374 5.27962 11095 ft 327 kts 124°
2026-05-07 12:41 52.22089 5.31012 11354 ft 329 kts 125°
2026-05-07 12:41 52.20766 5.34046 11624 ft 330 kts 125°
2026-05-07 12:41 52.19448 5.37094 11903 ft 331 kts 125°
2026-05-07 12:41 52.18112 5.40170 12187 ft 332 kts 125°
2026-05-07 12:42 52.16787 5.43222 12462 ft 333 kts 125°
2026-05-07 12:42 52.15438 5.46320 12754 ft 334 kts 125°
2026-05-07 12:42 52.14099 5.49387 13038 ft 336 kts 125°
2026-05-07 12:42 52.12742 5.52490 13331 ft 337 kts 125°
2026-05-07 12:43 52.11373 5.55619 13632 ft 339 kts 125°
2026-05-07 12:43 52.09999 5.58756 13938 ft 340 kts 125°
2026-05-07 12:43 52.08625 5.61892 14234 ft 342 kts 125°
2026-05-07 12:43 52.07265 5.64995 14537 ft 343 kts 125°
2026-05-07 12:44 52.05847 5.68183 14859 ft 344 kts 129°
2026-05-07 12:44 52.04283 5.71101 15158 ft 346 kts 133°
2026-05-07 12:44 52.02690 5.74034 15474 ft 347 kts 131°
2026-05-07 12:44 52.01110 5.76980 15778 ft 349 kts 132°
2026-05-07 12:45 51.99503 5.79959 16087 ft 350 kts 132°
2026-05-07 12:45 51.97905 5.82933 16382 ft 352 kts 132°
2026-05-07 12:45 51.96291 5.85945 16683 ft 354 kts 132°
2026-05-07 12:45 51.94678 5.88952 16994 ft 355 kts 132°
2026-05-07 12:46 51.93069 5.91949 17291 ft 356 kts 132°
2026-05-07 12:46 51.91433 5.94993 17576 ft 358 kts 132°
2026-05-07 12:46 51.89793 5.98044 17874 ft 360 kts 132°
2026-05-07 12:46 51.88158 6.01082 18172 ft 361 kts 132°
2026-05-07 12:47 51.86505 6.04161 18460 ft 362 kts 132°
2026-05-07 12:47 51.84849 6.07243 18736 ft 364 kts 132°
2026-05-07 12:47 51.83168 6.10313 19029 ft 366 kts 132°
2026-05-07 12:47 51.81493 6.13386 19321 ft 367 kts 132°
2026-05-07 12:48 51.79820 6.16453 19593 ft 368 kts 132°
2026-05-07 12:48 51.78133 6.19549 19871 ft 370 kts 132°
2026-05-07 12:48 51.76443 6.22657 20162 ft 371 kts 132°
2026-05-07 12:48 51.74733 6.25772 20436 ft 372 kts 133°
2026-05-07 12:49 51.72997 6.28925 20713 ft 373 kts 132°
2026-05-07 12:49 51.71283 6.32039 20988 ft 374 kts 132°
2026-05-07 12:49 51.69562 6.35166 21265 ft 376 kts 132°
2026-05-07 12:49 51.67837 6.38300 21541 ft 376 kts 132°
2026-05-07 12:50 51.66106 6.41445 21817 ft 378 kts 132°
2026-05-07 12:50 51.64370 6.44608 22095 ft 378 kts 132°
2026-05-07 12:50 51.62624 6.47788 22373 ft 379 kts 132°
2026-05-07 12:50 51.60862 6.50951 22645 ft 381 kts 132°
2026-05-07 12:51 51.59111 6.54115 22901 ft 382 kts 132°
2026-05-07 12:51 51.57325 6.57336 23150 ft 384 kts 132°
2026-05-07 12:51 51.55558 6.60519 23393 ft 385 kts 132°
2026-05-07 12:51 51.53748 6.63776 23642 ft 387 kts 132°
2026-05-07 12:52 51.51946 6.67013 23891 ft 388 kts 133°
2026-05-07 12:52 51.50159 6.70220 24137 ft 389 kts 133°
2026-05-07 12:52 51.48360 6.73440 24382 ft 390 kts 133°
2026-05-07 12:52 51.46531 6.76712 24631 ft 392 kts 133°
2026-05-07 12:53 51.44729 6.79937 24876 ft 393 kts 133°
2026-05-07 12:53 51.42896 6.83219 25116 ft 394 kts 133°
2026-05-07 12:53 51.41081 6.86475 25352 ft 396 kts 133°
2026-05-07 12:53 51.39292 6.89866 25588 ft 398 kts 129°
2026-05-07 12:54 51.37599 6.93349 25836 ft 399 kts 129°
2026-05-07 12:54 51.35884 6.96774 26298 ft 394 kts 129°
2026-05-07 12:54 51.34260 7.00040 27523 ft 362 kts 129°
2026-05-07 12:54 51.32775 7.03019 28725 ft 328 kts 129°
2026-05-07 12:55 51.31410 7.05756 29600 ft 304 kts 130°
2026-05-07 12:55 51.30116 7.08343 30188 ft 289 kts 130°
2026-05-07 12:55 51.28870 7.10832 30695 ft 281 kts 130°
2026-05-07 12:55 51.27652 7.13255 31156 ft 278 kts 130°
2026-05-07 12:56 51.26306 7.15451 31589 ft 275 kts 149°
2026-05-07 12:56 51.24626 7.16879 31860 ft 285 kts 158°
2026-05-07 12:56 51.22700 7.18248 31032 ft 317 kts 155°
2026-05-07 12:56 51.20692 7.19840 30710 ft 332 kts 154°
2026-05-07 12:57 51.18561 7.21531 30623 ft 347 kts 154°
2026-05-07 12:57 51.17132 7.22663 30716 ft 351 kts 154°
2026-05-07 12:57 51.16309 7.23318 30821 ft 353 kts 154°
2026-05-07 12:57 51.14077 7.25096 31025 ft 358 kts 154°
2026-05-07 12:58 51.09480 7.28830 31107 ft 380 kts 153°
2026-05-07 12:58 51.07080 7.30807 31099 ft 391 kts 153°
2026-05-07 12:58 51.04659 7.32806 31190 ft 402 kts 153°
2026-05-07 12:59 51.02112 7.34908 31008 ft 421 kts 153°
2026-05-07 12:59 50.99443 7.37089 30565 ft 440 kts 153°
2026-05-07 12:59 50.96730 7.39318 30107 ft 445 kts 153°
2026-05-07 12:59 50.93982 7.41573 29427 ft 438 kts 153°
2026-05-07 13:00 50.91347 7.43738 28706 ft 428 kts 153°
2026-05-07 13:00 50.88717 7.45902 27959 ft 417 kts 153°
2026-05-07 13:00 50.86206 7.47973 27223 ft 406 kts 153°
2026-05-07 13:00 50.83747 7.49966 26355 ft 395 kts 153°
2026-05-07 13:01 50.81321 7.51942 25422 ft 386 kts 153°
2026-05-07 13:01 50.78974 7.53851 24514 ft 378 kts 153°
2026-05-07 13:01 50.76676 7.55720 23627 ft 370 kts 153°
2026-05-07 13:01 50.74384 7.57584 22994 ft 372 kts 153°
2026-05-07 13:02 50.72117 7.59431 22659 ft 360 kts 153°
2026-05-07 13:02 50.69910 7.61234 22537 ft 364 kts 153°
2026-05-07 13:02 50.67622 7.63092 22225 ft 378 kts 153°
2026-05-07 13:02 50.65242 7.65005 21756 ft 389 kts 154°
2026-05-07 13:03 50.62825 7.66965 21194 ft 390 kts 154°
2026-05-07 13:03 50.60447 7.68892 20572 ft 385 kts 154°
2026-05-07 13:03 50.58078 7.70813 19885 ft 377 kts 154°
2026-05-07 13:03 50.55769 7.72659 19107 ft 369 kts 154°
2026-05-07 13:04 50.53545 7.74446 18336 ft 361 kts 154°
2026-05-07 13:04 50.51347 7.76207 17563 ft 354 kts 154°
2026-05-07 13:04 50.49176 7.77947 16781 ft 347 kts 154°
2026-05-07 13:04 50.47050 7.79653 15991 ft 342 kts 154°
2026-05-07 13:05 50.44955 7.81340 15199 ft 337 kts 154°
2026-05-07 13:05 50.42960 7.83129 14405 ft 334 kts 144°
2026-05-07 13:05 50.41165 7.85389 13729 ft 327 kts 141°
2026-05-07 13:05 50.39385 7.87607 13108 ft 329 kts 142°
2026-05-07 13:06 50.37629 7.89777 12491 ft 323 kts 142°
2026-05-07 13:06 50.35869 7.91957 11888 ft 324 kts 142°
2026-05-07 13:06 50.34119 7.94123 11311 ft 317 kts 142°
2026-05-07 13:06 50.32422 7.96223 10799 ft 307 kts 142°
2026-05-07 13:07 50.30776 7.98254 10462 ft 292 kts 142°
2026-05-07 13:07 50.29234 8.00180 10241 ft 283 kts 142°
2026-05-07 13:07 50.27682 8.02087 10029 ft 287 kts 142°
2026-05-07 13:07 50.26154 8.04118 9793 ft 289 kts 133°
2026-05-07 13:08 50.24918 8.06578 9588 ft 287 kts 126°
2026-05-07 13:08 50.23709 8.09082 9367 ft 286 kts 128°
2026-05-07 13:08 50.22503 8.11516 9157 ft 286 kts 127°
2026-05-07 13:08 50.21300 8.13961 8954 ft 285 kts 127°
2026-05-07 13:09 50.20083 8.16425 8755 ft 284 kts 127°
2026-05-07 13:09 50.18876 8.18867 8552 ft 283 kts 127°
2026-05-07 13:09 50.17672 8.21288 8357 ft 282 kts 127°
2026-05-07 13:09 50.16479 8.23698 8155 ft 281 kts 127°
2026-05-07 13:10 50.15303 8.26077 7957 ft 280 kts 126°
2026-05-07 13:10 50.14383 8.28716 7718 ft 278 kts 106°
2026-05-07 13:10 50.14109 8.31649 7513 ft 274 kts 86°
2026-05-07 13:10 50.14259 8.34622 7343 ft 272 kts 83°
2026-05-07 13:11 50.14412 8.37550 7196 ft 271 kts 83°
2026-05-07 13:11 50.14563 8.40427 7119 ft 269 kts 83°
2026-05-07 13:11 50.14710 8.43310 7077 ft 263 kts 83°
2026-05-07 13:11 50.14858 8.46144 7054 ft 260 kts 83°
2026-05-07 13:12 50.14998 8.48937 7041 ft 260 kts 83°
2026-05-07 13:12 50.15141 8.51759 7046 ft 260 kts 83°
2026-05-07 13:12 50.15281 8.54560 7052 ft 260 kts 83°
2026-05-07 13:12 50.15427 8.57408 6944 ft 263 kts 83°
2026-05-07 13:13 50.15570 8.60247 6609 ft 266 kts 83°
2026-05-07 13:13 50.15714 8.63124 6237 ft 263 kts 83°
2026-05-07 13:13 50.15853 8.65909 5855 ft 257 kts 84°
2026-05-07 13:13 50.15993 8.68697 5458 ft 253 kts 84°
2026-05-07 13:14 50.16125 8.71412 5087 ft 251 kts 84°
2026-05-07 13:14 50.16256 8.74084 4611 ft 243 kts 84°
2026-05-07 13:14 50.16380 8.76672 4341 ft 239 kts 84°
2026-05-07 13:14 50.16505 8.79215 4167 ft 237 kts 84°
2026-05-07 13:15 50.16631 8.81774 4080 ft 237 kts 84°
2026-05-07 13:15 50.16761 8.84330 4043 ft 236 kts 84°
2026-05-07 13:15 50.16753 8.86875 4010 ft 237 kts 101°
2026-05-07 13:15 50.16128 8.89259 4004 ft 239 kts 126°
2026-05-07 13:16 50.14940 8.91031 4002 ft 239 kts 150°
2026-05-07 13:16 50.13385 8.91900 4000 ft 238 kts 175°
2026-05-07 13:16 50.11751 8.91686 3992 ft 236 kts 202°
2026-05-07 13:16 50.10424 8.90282 3991 ft 231 kts 234°
2026-05-07 13:17 50.09777 8.88055 3994 ft 228 kts 263°
2026-05-07 13:17 50.09649 8.85621 3987 ft 218 kts 268°
2026-05-07 13:17 50.09552 8.83321 3926 ft 214 kts 263°
2026-05-07 13:17 50.09158 8.81076 3729 ft 217 kts 255°
2026-05-07 13:18 50.08715 8.78856 3465 ft 212 kts 255°
2026-05-07 13:18 50.08273 8.76721 2976 ft 199 kts 253°
2026-05-07 13:18 50.07847 8.74750 2499 ft 190 kts 253°
2026-05-07 13:18 50.07431 8.72855 1934 ft 186 kts 249°
2026-05-07 13:19 50.06953 8.71019 1454 ft 176 kts 249°
2026-05-07 13:19 50.06519 8.69329 1323 ft 162 kts 250°
2026-05-07 13:19 50.06139 8.67741 1315 ft 153 kts 253°
2026-05-07 13:19 50.05798 8.66201 1236 ft 149 kts 252°
2026-05-07 13:20 50.05463 8.64692 1222 ft 144 kts 251°
2026-05-07 13:20 50.05107 8.63232 1103 ft 145 kts 249°
2026-05-07 13:20 50.04745 8.61763 806 ft 142 kts 250°
2026-05-07 13:20 50.04419 8.60350 616 ft 140 kts 250°
2026-05-07 13:21 50.04071 8.58934 442 ft 140 kts 250°
2026-05-07 13:21 50.03732 8.57513 355 ft 134 kts 250°
2026-05-07 13:21 50.03445 8.56317 342 ft 104 kts 250°
2026-05-07 13:21 50.03254 8.55508 337 ft 69 kts 250°
2026-05-07 13:22 50.03114 8.54922 334 ft 43 kts 249°
2026-05-07 13:22 50.03045 8.54682 334 ft 16 kts 208°
2026-05-07 13:22 50.02941 8.54702 335 ft 9 kts 156°
2026-05-07 13:22 50.02937 8.54705 335 ft 0 kts 156°
2026-05-07 13:24 50.02909 8.54744 336 ft 13 kts 131°
2026-05-07 13:24 50.02844 8.54842 337 ft 8 kts 125°
2026-05-07 13:24 50.02835 8.54916 337 ft 6 kts 85°
2026-05-07 13:24 50.02855 8.55035 337 ft 16 kts 70°
2026-05-07 13:25 50.02906 8.55251 339 ft 24 kts 70°
2026-05-07 13:25 50.02955 8.55456 341 ft 14 kts 70°
2026-05-07 13:25 50.02988 8.55593 341 ft 13 kts 70°
2026-05-07 13:25 50.03027 8.55746 342 ft 16 kts 70°
2026-05-07 13:26 50.03070 8.55934 342 ft 20 kts 70°
2026-05-07 13:26 50.03134 8.56132 342 ft 19 kts 42°
2026-05-07 13:26 50.03228 8.56236 342 ft 17 kts 55°
2026-05-07 13:26 50.03279 8.56429 342 ft 21 kts 69°
2026-05-07 13:27 50.03330 8.56631 344 ft 19 kts 69°
2026-05-07 13:27 50.03339 8.56772 344 ft 12 kts 122°
2026-05-07 13:27 50.03249 8.56846 344 ft 17 kts 161°
2026-05-07 13:27 50.03115 8.56920 345 ft 22 kts 161°
2026-05-07 13:28 50.02985 8.56994 347 ft 18 kts 160°
2026-05-07 13:28 50.02916 8.57027 347 ft 4 kts 194°
2026-05-07 13:28 50.02891 8.56971 347 ft 7 kts 250°
2026-05-07 13:28 50.02876 8.56907 348 ft 0 kts 250°